When you browse on this site, cookies collect data to enhance your experience and personalize the content and advertising you see.
Visit our Privacy Policy to learn more. By continuing to use the site, you agree to this use of cookies and data.
  • In Latvia
  • List of Countries
  • For 7 days
  • Water Temperature
  • Weather Map
  • Weather Widgets
  • user-avatar
    Login

    Hourly Weather San Luis

    Today, 18 February, Tuesday

    Time Temperature Precipitation Wind Pressure Humidity
    00:00 +17°C° 0 mm 7 mps 699 mmHg 38%
    01:00 +17°C° 0 mm 5 mps 699 mmHg 40%
    02:00 +17°C° 0 mm 4 mps 699 mmHg 42%
    03:00 +16°C° 0 mm 3 mps 699 mmHg 41%
    04:00 +16°C° 0 mm 3 mps 699 mmHg 40%
    05:00 +14°C° 0 mm 3 mps 699 mmHg 39%
    06:00 +17°C° 0 mm 3 mps 700 mmHg 34%
    07:00 +18°C° 0 mm 3 mps 701 mmHg 30%
    08:00 +20°C° 0 mm 3 mps 701 mmHg 26%
    09:00 +21°C° 0 mm 3 mps 701 mmHg 23%
    10:00 +24°C° 0 mm 3 mps 701 mmHg 20%
    11:00 +25°C° 0 mm 3 mps 701 mmHg 16%
    12:00 +27°C° 0 mm 3 mps 701 mmHg 15%
    13:00 +28°C° 0 mm 3 mps 700 mmHg 14%
    14:00 +29°C° 0 mm 3 mps 700 mmHg 13%
    15:00 +30°C° 0 mm 3 mps 699 mmHg 13%
    16:00 +30°C° 0 mm 3 mps 699 mmHg 14%
    17:00 +30°C° 0 mm 3 mps 698 mmHg 14%
    18:00 +28°C° 0 mm 3 mps 698 mmHg 18%
    19:00 +26°C° 0 mm 3 mps 697 mmHg 22%
    20:00 +22°C° 0 mm 3 mps 697 mmHg 26%
    21:00 +22°C° 0 mm 3 mps 697 mmHg 27%
    22:00 +21°C° 0 mm 3 mps 697 mmHg 28%
    23:00 +21°C° 0 mm 2 mps 697 mmHg 28%

    Tomorrow, 19 February, Wednesday

    Time Temperature Precipitation Wind Pressure Humidity
    00:00 +20°C° 0 mm 3 mps 696 mmHg 30%
    01:00 +20°C° 0 mm 3 mps 696 mmHg 32%
    02:00 +20°C° 0 mm 3 mps 696 mmHg 34%
    03:00 +20°C° 0 mm 3 mps 695 mmHg 37%
    04:00 +19°C° 0 mm 3 mps 695 mmHg 40%
    05:00 +19°C° 0 mm 3 mps 695 mmHg 44%
    06:00 +21°C° 0 mm 4 mps 695 mmHg 41%
    07:00 +23°C° 0 mm 5 mps 696 mmHg 38%
    08:00 +26°C° 0 mm 6 mps 697 mmHg 35%
    09:00 +27°C° 0 mm 6 mps 697 mmHg 33%
    10:00 +29°C° 0 mm 6 mps 697 mmHg 30%
    11:00 +32°C° 0 mm 6 mps 698 mmHg 27%
    12:00 +32°C° 0 mm 6 mps 697 mmHg 26%
    13:00 +33°C° 0 mm 5 mps 697 mmHg 26%
    14:00 +34°C° 0 mm 5 mps 697 mmHg 25%
    15:00 +34°C° 0 mm 4 mps 696 mmHg 25%
    16:00 +34°C° 0 mm 4 mps 696 mmHg 25%
    17:00 +34°C° 0 mm 3 mps 695 mmHg 25%
    18:00 +31°C° 0 mm 2 mps 695 mmHg 30%
    19:00 +28°C° 0 mm 2 mps 696 mmHg 34%
    20:00 +26°C° 0 mm 2 mps 696 mmHg 39%
    21:00 +25°C° 0 mm 4 mps 697 mmHg 37%
    22:00 +23°C° 0 mm 6 mps 698 mmHg 34%
    23:00 +22°C° 0 mm 8 mps 699 mmHg 31%

    Day after tomorrow, 20 February, Thursday

    Time Temperature Precipitation Wind Pressure Humidity
    00:00 +21°C° 0 mm 9 mps 699 mmHg 32%
    01:00 +19°C° 0 mm 9 mps 699 mmHg 32%
    02:00 +18°C° 0 mm 9 mps 700 mmHg 33%
    03:00 +18°C° 0 mm 9 mps 700 mmHg 33%
    04:00 +17°C° 0 mm 9 mps 701 mmHg 33%
    05:00 +17°C° 0 mm 9 mps 701 mmHg 33%
    06:00 +18°C° 0 mm 9 mps 702 mmHg 33%
    07:00 +18°C° 0 mm 9 mps 703 mmHg 33%
    08:00 +19°C° 0 mm 10 mps 703 mmHg 33%
    09:00 +21°C° 0 mm 10 mps 704 mmHg 31%
    10:00 +23°C° 0 mm 10 mps 704 mmHg 28%
    11:00 +24°C° 0 mm 10 mps 704 mmHg 25%
    12:00 +26°C° 0 mm 10 mps 704 mmHg 23%
    13:00 +27°C° 0 mm 10 mps 703 mmHg 22%
    14:00 +28°C° 0 mm 10 mps 703 mmHg 20%
    15:00 +28°C° 0 mm 10 mps 702 mmHg 20%
    16:00 +27°C° 0 mm 10 mps 702 mmHg 20%
    17:00 +27°C° 0 mm 11 mps 701 mmHg 20%
    18:00 +24°C° 0 mm 10 mps 702 mmHg 21%
    19:00 +22°C° 0 mm 9 mps 702 mmHg 22%
    20:00 +21°C° 0 mm 9 mps 702 mmHg 23%
    21:00 +20°C° 0 mm 8 mps 702 mmHg 23%
    22:00 +18°C° 0 mm 8 mps 703 mmHg 23%
    23:00 +18°C° 0 mm 7 mps 703 mmHg 23%

    21 February, Friday

    Time Temperature Precipitation Wind Pressure Humidity
    00:00 +18°C° 0 mm 7 mps 704 mmHg 23%
    01:00 +18°C° 0 mm 7 mps 704 mmHg 23%
    02:00 +18°C° 0 mm 7 mps 704 mmHg 23%
    09:00 +21°C° 0 mm 6 mps 706 mmHg 25%
    10:00 +23°C° 0 mm 5 mps 706 mmHg 24%
    11:00 +26°C° 0 mm 4 mps 706 mmHg 22%
    12:00 +27°C° 0 mm 4 mps 706 mmHg 22%
    13:00 +28°C° 0 mm 4 mps 705 mmHg 21%
    14:00 +29°C° 0 mm 4 mps 705 mmHg 21%
    15:00 +29°C° 0 mm 5 mps 704 mmHg 21%
    16:00 +29°C° 0 mm 5 mps 704 mmHg 22%
    17:00 +29°C° 0 mm 6 mps 703 mmHg 22%
    18:00 +27°C° 0 mm 6 mps 703 mmHg 24%
    19:00 +23°C° 0 mm 7 mps 703 mmHg 25%
    20:00 +21°C° 0 mm 7 mps 703 mmHg 27%
    21:00 +20°C° 0 mm 7 mps 703 mmHg 27%
    22:00 +20°C° 0 mm 7 mps 703 mmHg 28%
    23:00 +19°C° 0 mm 6 mps 703 mmHg 29%

    22 February, Saturday

    Time Temperature Precipitation Wind Pressure Humidity
    00:00 +19°C° 0 mm 6 mps 703 mmHg 29%
    01:00 +19°C° 0 mm 5 mps 702 mmHg 29%
    02:00 +19°C° 0 mm 4 mps 702 mmHg 29%
    03:00 +19°C° 0 mm 4 mps 702 mmHg 32%
    04:00 +18°C° 0 mm 4 mps 702 mmHg 34%
    05:00 +18°C° 0 mm 4 mps 701 mmHg 37%
    06:00 +19°C° 0 mm 4 mps 702 mmHg 36%
    07:00 +21°C° 0 mm 5 mps 702 mmHg 35%
    08:00 +22°C° 0 mm 5 mps 703 mmHg 34%
    09:00 +22°C° 0 mm 5 mps 703 mmHg 33%
    10:00 +23°C° 0 mm 6 mps 702 mmHg 33%
    11:00 +23°C° 0 mm 6 mps 702 mmHg 33%
    12:00 +23°C° 0 mm 5 mps 702 mmHg 32%
    13:00 +23°C° 0 mm 5 mps 701 mmHg 32%
    14:00 +25°C° 0 mm 5 mps 701 mmHg 31%
    15:00 +25°C° 0 mm 5 mps 700 mmHg 31%
    16:00 +25°C° 0 mm 5 mps 700 mmHg 32%
    17:00 +26°C° 0 mm 4 mps 699 mmHg 32%
    18:00 +23°C° 0 mm 4 mps 699 mmHg 35%
    19:00 +21°C° 0 mm 4 mps 699 mmHg 38%
    20:00 +19°C° 0 mm 4 mps 699 mmHg 41%
    21:00 +19°C° 0 mm 4 mps 699 mmHg 42%
    22:00 +18°C° 0 mm 4 mps 699 mmHg 43%
    23:00 +18°C° 0 mm 4 mps 699 mmHg 43%

    23 February, Sunday

    Time Temperature Precipitation Wind Pressure Humidity
    00:00 +18°C° 0 mm 4 mps 699 mmHg 43%
    01:00 +17°C° 0 mm 5 mps 698 mmHg 43%
    02:00 +16°C° 0 mm 5 mps 698 mmHg 43%
    03:00 +16°C° 0 mm 5 mps 698 mmHg 44%
    04:00 +16°C° 0 mm 5 mps 697 mmHg 44%
    05:00 +16°C° 0 mm 5 mps 697 mmHg 44%
    06:00 +19°C° 0 mm 5 mps 697 mmHg 41%
    07:00 +20°C° 0 mm 5 mps 698 mmHg 37%
    08:00 +22°C° 0 mm 6 mps 698 mmHg 34%
    09:00 +25°C° 0 mm 5 mps 698 mmHg 32%
    10:00 +26°C° 0 mm 5 mps 698 mmHg 30%
    11:00 +28°C° 0 mm 5 mps 698 mmHg 28%
    12:00 +29°C° 0 mm 5 mps 697 mmHg 27%
    13:00 +30°C° 0 mm 5 mps 697 mmHg 26%
    14:00 +32°C° 0 mm 5 mps 696 mmHg 25%
    15:00 +32°C° 0 mm 5 mps 695 mmHg 25%
    16:00 +32°C° 0 mm 5 mps 695 mmHg 26%
    17:00 +32°C° 0 mm 4 mps 694 mmHg 26%
    18:00 +28°C° 0 mm 4 mps 694 mmHg 32%
    19:00 +26°C° 0 mm 4 mps 693 mmHg 37%
    20:00 +22°C° 0 mm 4 mps 693 mmHg 42%
    21:00 +22°C° 0 mm 4 mps 693 mmHg 42%
    22:00 +22°C° 0 mm 5 mps 694 mmHg 41%
    23:00 +22°C° 0 mm 6 mps 694 mmHg 41%
    Show more